| time (UTC) | temp C | wind direction | speed KPH | gust KPH | rain 1hr cm | rain 24hr cm | rain mn cm | humidity % | barometer mb |
| 20260502183105 | 16 | 0 | 1.6 | 8.0 | 0.00 | 0.00 | 0.00 | 38 | 1011.5 |
| 20260502181550 | 15 | 259 | 3.2 | 8.0 | 0.00 | 0.00 | 0.00 | 32 | 1011.9 |
| 20260502163054 | 13 | 236 | 3.2 | 8.0 | 0.00 | 0.00 | 0.00 | 38 | 1013.2 |
| 20260502161601 | 13 | 210 | 4.8 | 12.9 | 0.00 | 0.00 | 0.00 | 36 | 1013.4 |
| 20260502151549 | 11 | 297 | 1.6 | 8.0 | 0.00 | 0.00 | 0.00 | 45 | 1013.9 |
| 20260502123048 | 8 | 113 | 0.0 | 3.2 | 0.00 | 0.00 | 0.00 | 53 | 1013.8 |
| 20260502121551 | 8 | 293 | 0.0 | 3.2 | 0.00 | 0.00 | 0.00 | 53 | 1013.8 |
| 20260502114554 | 8 | 0 | 0.0 | 1.6 | 0.00 | 0.00 | 0.00 | 58 | 1013.6 |
| 20260502113051 | 8 | 327 | 0.0 | 6.4 | 0.00 | 0.00 | 0.00 | 51 | 1013.4 |
| 20260502111551 | 8 | 274 | 1.6 | 4.8 | 0.00 | 0.00 | 0.00 | 52 | 1013.4 |
| 20260502110054 | 7 | 255 | 0.0 | 6.4 | 0.00 | 0.00 | 0.00 | 51 | 1013.4 |
| 20260502104549 | 7 | 0 | 0.0 | 0.0 | 0.00 | 0.00 | 0.00 | 54 | 1013.3 |
| 20260502103047 | 8 | 0 | 0.0 | 4.8 | 0.00 | 0.00 | 0.00 | 53 | 1013.4 |
| 20260502101552 | 8 | 0 | 0.0 | 1.6 | 0.00 | 0.00 | 0.00 | 56 | 1013.4 |
| 20260502064548 | 10 | 0 | 0.0 | 4.8 | 0.00 | 0.00 | 0.00 | 66 | 1012.8 |
| 20260502063048 | 10 | 290 | 0.0 | 6.4 | 0.00 | 0.00 | 0.00 | 65 | 1013.0 |
| 20260502061550 | 10 | 285 | 0.0 | 1.6 | 0.00 | 0.00 | 0.00 | 66 | 1013.1 |
| 20260502060051 | 10 | 0 | 0.0 | 1.6 | 0.00 | 0.00 | 0.00 | 66 | 1013.2 |
| 20260502054551 | 10 | 0 | 0.0 | 1.6 | 0.00 | 0.00 | 0.00 | 65 | 1013.0 |
| 20260502053059 | 10 | 0 | 0.0 | 0.0 | 0.00 | 0.00 | 0.00 | 65 | 1012.8 |
| 20260502051605 | 11 | 0 | 0.0 | 1.6 | 0.00 | 0.00 | 0.00 | 64 | 1012.9 |
| 20260502050056 | 11 | 0 | 0.0 | 3.2 | 0.00 | 0.00 | 0.00 | 62 | 1012.9 |
| 20260502044552 | 12 | 262 | 1.6 | 9.7 | 0.00 | 0.00 | 0.00 | 61 | 1012.9 |
| 20260502043055 | 12 | 0 | 0.0 | 4.8 | 0.00 | 0.00 | 0.00 | 62 | 1012.7 |
| 20260502041610 | 12 | 0 | 1.6 | 4.8 | 0.00 | 0.00 | 0.00 | 61 | 1012.6 |
| 20260502040054 | 12 | 0 | 0.0 | 1.6 | 0.00 | 0.00 | 0.00 | 61 | 1012.6 |
| 20260502034552 | 12 | 0 | 1.6 | 6.4 | 0.00 | 0.00 | 0.00 | 60 | 1012.5 |
| 20260502033105 | 13 | 124 | 3.2 | 11.3 | 0.00 | 0.00 | 0.00 | 59 | 1012.4 |
| 20260502031556 | 13 | 0 | 3.2 | 11.3 | 0.00 | 0.00 | 0.00 | 57 | 1012.3 |
| 20260502030056 | 14 | 280 | 1.6 | 8.0 | 0.00 | 0.00 | 0.00 | 54 | 1012.0 |
| 20260502024555 | 14 | 275 | 1.6 | 8.0 | 0.00 | 0.00 | 0.00 | 53 | 1012.2 |
| 20260502023057 | 15 | 244 | 3.2 | 9.7 | 0.00 | 0.00 | 0.00 | 52 | 1011.8 |
| 20260502021550 | 15 | 283 | 0.0 | 8.0 | 0.00 | 0.00 | 0.00 | 55 | 1011.5 |
| 20260502020054 | 15 | 0 | 0.0 | 3.2 | 0.00 | 0.00 | 0.00 | 60 | 1010.9 |
| 20260502014549 | 15 | 0 | 0.0 | 9.7 | 0.00 | 0.00 | 0.00 | 58 | 1010.9 |
| 20260502013048 | 15 | 0 | 1.6 | 9.7 | 0.00 | 0.00 | 0.00 | 54 | 1010.8 |
| 20260502011550 | 15 | 202 | 0.0 | 11.3 | 0.00 | 0.00 | 0.00 | 53 | 1010.5 |
| 20260502010048 | 15 | 231 | 3.2 | 11.3 | 0.00 | 0.00 | 0.00 | 53 | 1010.4 |
| 20260502004547 | 15 | 239 | 0.0 | 8.0 | 0.00 | 0.00 | 0.00 | 53 | 1010.1 |
| 20260502003045 | 15 | 240 | 0.0 | 6.4 | 0.00 | 0.00 | 0.00 | 54 | 1009.8 |
| 20260502001559 | 15 | 285 | 1.6 | 4.8 | 0.00 | 0.00 | 0.00 | 52 | 1009.5 |
| 20260502000050 | 16 | 250 | 0.0 | 6.4 | 0.00 | 0.00 | 0.00 | 51 | 1009.3 |
| 20260501234547 | 16 | 203 | 1.6 | 9.7 | 0.00 | 0.00 | 0.00 | 50 | 1008.8 |
| 20260501233103 | 16 | 263 | 0.0 | 6.4 | 0.00 | 0.00 | 0.00 | 49 | 1008.9 |
| 20260501231559 | 17 | 257 | 3.2 | 8.0 | 0.00 | 0.00 | 0.00 | 48 | 1009.0 |
| 20260501230049 | 18 | 179 | 1.6 | 12.9 | 0.00 | 0.00 | 0.00 | 46 | 1008.8 |
| 20260501224548 | 18 | 118 | 3.2 | 12.9 | 0.00 | 0.00 | 0.00 | 44 | 1008.8 |
| 20260501223110 | 20 | 96 | 3.2 | 9.7 | 0.00 | 0.00 | 0.00 | 43 | 1008.8 |
| 20260501221551 | 20 | 135 | 0.0 | 8.0 | 0.00 | 0.00 | 0.00 | 40 | 1008.9 |
| 20260501220052 | 20 | 0 | 1.6 | 6.4 | 0.00 | 0.00 | 0.00 | 42 | 1009.0 |
| 20260501214549 | 20 | 95 | 1.6 | 4.8 | 0.00 | 0.00 | 0.00 | 42 | 1009.1 |
| 20260501213050 | 20 | 118 | 1.6 | 8.0 | 0.00 | 0.00 | 0.00 | 42 | 1009.2 |
| 20260501211546 | 19 | 264 | 0.0 | 9.7 | 0.00 | 0.00 | 0.00 | 47 | 1009.4 |
| 20260501210051 | 18 | 113 | 3.2 | 8.0 | 0.00 | 0.00 | 0.00 | 43 | 1009.3 |
| 20260501204609 | 18 | 150 | 3.2 | 9.7 | 0.00 | 0.00 | 0.00 | 41 | 1009.6 |
| 20260501203053 | 19 | 0 | 1.6 | 6.4 | 0.00 | 0.00 | 0.00 | 41 | 1009.8 |
| 20260501201552 | 19 | 287 | 1.6 | 9.7 | 0.00 | 0.00 | 0.00 | 41 | 1010.0 |
| 20260501200050 | 18 | 224 | 3.2 | 9.7 | 0.00 | 0.00 | 0.00 | 45 | 1010.3 |
| 20260501194546 | 18 | 257 | 1.6 | 8.0 | 0.00 | 0.00 | 0.00 | 42 | 1010.6 |
| 20260501193051 | 18 | 115 | 4.8 | 14.5 | 0.00 | 0.00 | 0.00 | 41 | 1010.9 |
| 20260501191556 | 18 | 133 | 3.2 | 14.5 | 0.00 | 0.00 | 0.00 | 38 | 1011.2 |
| 20260501190049 | 19 | 268 | 1.6 | 11.3 | 0.00 | 0.00 | 0.00 | 40 | 1011.5 |
| 20260501184551 | 18 | 243 | 3.2 | 12.9 | 0.00 | 0.00 | 0.00 | 40 | 1011.5 |